Location: Kerguer�zec
(48.4509°N, 4.7600°W)
Time: 12:01:35
(UTC+00:00)

Meteor 2-1 Rocket - Pass Details

Date: 09 April 2020
Orbit: 828 x 909 km, 81.3° (Epoch: 27 May)

Event Time Altitude Azimuth Distance (km) Brightness Sun altitude
Exits shadow 21:23:23 20° 190° (S) 1,968 5.8 -21.5°
Maximum altitude 21:27:39 90° 261° (W) 915 4.3 -22.0°
Drops below altitude 10° 21:33:38 10° 12° (NNE) 2,605 7.1 -22.7°
Sets 21:36:06 0° 12° (NNE) 3,549 7.9 -23.0°
